Weather History for Dyersburg, TN

Change the Weather History Date:

Thursday, February 6, 2014

  Actual Average Record
Temperature  
Mean Temperature 19 °F -  
Max Temperature 21 °F 46 °F 66 °F (1999)
Min Temperature 17 °F 33 °F 17 °F (2014)
Degree Days  
Heating Degree Days 46    
Moisture  
Dew Point 8 °F    
Average Humidity 62    
Maximum Humidity 68    
Minimum Humidity 58    
Precipitation  
Precipitation 0.00 in - - ()
Sea Level Pressure  
Sea Level Pressure 30.52 in    
Wind  
Wind Speed 5 mph (North)    
Max Wind Speed 6 mph    
Max Gust Speed -    
Visibility 10 miles    
Events      
Averages and records for this station are not official NWS values.
T = Trace of Precipitation, MM = Missing Value Source: NWS Daily Summary

Daily Weather History Graph

Daily Weather History Graph

Search for Another Location

Airport:

Trip Planner

Search our weather history database for the weather conditions in past years. The results will help you decide how hot, cold, wet, or windy it might be!

Date:

Astronomy

Feb. 06, 2014 Rise Set
Actual Time 6:53 AM CST 5:29 PM CST
Civil Twilight 6:27 AM CST 5:56 PM CST
Nautical Twilight 5:56 AM CST 6:27 PM CST
Astronomical Twilight 5:26 AM CST 6:57 PM CST
Moon 11:02 AM CST (2/6) 12:09 AM CST (2/6)
Length of Visible Light 11h 29m
Length of Day
10h 35m
Waxing Crescent, 49% of the Moon is Illuminated
Feb 6
Waxing Crescent
Feb 6
First Quarter
Feb 14
Full
Feb 22
Last Quarter
Mar 1
New

Hourly Weather History & Observations

Time (CST) Temp. Windchill Dew Point Humidity Pressure Visibility Wind Dir Wind Speed Gust Speed Precip Events Conditions
12:15 AM 21.2 °F 13.6 °F 10.4 °F 63% 30.51 in 10.0 mi NNE 5.8 mph - N/A   Overcast
12:35 AM 21.2 °F 13.6 °F 10.4 °F 63% 30.50 in 10.0 mi NNE 5.8 mph - N/A   Overcast
12:55 AM 21.2 °F 14.9 °F 10.4 °F 63% 30.50 in 10.0 mi NNE 4.6 mph - N/A   Overcast
1:15 AM 21.2 °F 13.6 °F 10.4 °F 63% 30.50 in 10.0 mi NNE 5.8 mph - N/A   Overcast
1:35 AM 21.2 °F 14.9 °F 10.4 °F 63% 30.49 in 10.0 mi NNE 4.6 mph - N/A   Overcast
1:55 AM 21.2 °F 13.6 °F 10.4 °F 63% 30.49 in 10.0 mi NNE 5.8 mph - N/A   Overcast
2:15 AM 21.2 °F 14.9 °F 10.4 °F 63% 30.49 in 10.0 mi North 4.6 mph - N/A   Overcast
2:35 AM 21.2 °F 14.9 °F 10.4 °F 63% 30.50 in 10.0 mi North 4.6 mph - N/A   Overcast
2:55 AM 21.2 °F 14.9 °F 10.4 °F 63% 30.49 in 10.0 mi NNE 4.6 mph - N/A   Overcast
3:15 AM 21.2 °F 14.9 °F 10.4 °F 63% 30.50 in 10.0 mi North 4.6 mph - N/A   Overcast
3:35 AM 21.2 °F 14.9 °F 10.4 °F 63% 30.50 in 10.0 mi North 4.6 mph - N/A   Overcast
3:55 AM 21.2 °F 14.9 °F 10.4 °F 63% 30.50 in 10.0 mi North 4.6 mph - N/A   Overcast
4:15 AM 21.2 °F 16.4 °F 10.4 °F 63% 30.51 in 10.0 mi North 3.5 mph - N/A   Overcast
4:35 AM 21.2 °F 16.4 °F 10.4 °F 63% 30.51 in 10.0 mi North 3.5 mph - N/A   Overcast
4:55 AM 19.4 °F 12.8 °F 10.4 °F 68% 30.51 in 10.0 mi North 4.6 mph - N/A   Overcast
5:15 AM 19.4 °F 11.5 °F 8.6 °F 63% 30.52 in 10.0 mi North 5.8 mph - N/A   Overcast
5:35 AM 19.4 °F 11.5 °F 8.6 °F 63% 30.53 in 10.0 mi North 5.8 mph - N/A   Overcast
5:55 AM 19.4 °F 11.5 °F 8.6 °F 63% 30.54 in 10.0 mi North 5.8 mph - N/A   Overcast
6:15 AM 19.4 °F 11.5 °F 6.8 °F 58% 30.54 in 10.0 mi North 5.8 mph - N/A   Overcast
6:35 AM 17.6 °F 9.3 °F 6.8 °F 63% 30.54 in 10.0 mi North 5.8 mph - N/A   Overcast
6:55 AM 17.6 °F 10.7 °F 6.8 °F 63% 30.55 in 10.0 mi North 4.6 mph - N/A   Overcast
7:15 AM 17.6 °F 10.7 °F 6.8 °F 63% 30.56 in 10.0 mi North 4.6 mph - N/A   Overcast
7:35 AM 17.6 °F 9.3 °F 6.8 °F 63% 30.56 in 10.0 mi North 5.8 mph - N/A   Overcast
7:55 AM 17.6 °F 12.3 °F 6.8 °F 63% 30.58 in 10.0 mi North 3.5 mph - N/A   Overcast
8:15 AM 17.6 °F 10.7 °F 6.8 °F 63% 30.57 in 10.0 mi North 4.6 mph - N/A   Overcast
8:35 AM 17.6 °F 10.7 °F 6.8 °F 63% 30.59 in 10.0 mi North 4.6 mph - N/A   Overcast
8:55 AM 19.4 °F 12.8 °F 6.8 °F 58% 30.58 in 10.0 mi North 4.6 mph - N/A   Overcast
9:15 AM 19.4 °F 12.8 °F 6.8 °F 58% 30.58 in 10.0 mi North 4.6 mph - N/A   Overcast
9:35 AM 19.4 °F 14.3 °F 6.8 °F 58% 30.58 in 10.0 mi North 3.5 mph - N/A   Overcast
9:55 AM 19.4 °F 14.3 °F 6.8 °F 58% 30.59 in 10.0 mi North 3.5 mph - N/A   Overcast
10:15 AM 19.4 °F 14.3 °F 8.6 °F 63% 30.59 in 10.0 mi North 3.5 mph - N/A   Overcast
10:35 AM 19.4 °F 12.8 °F 8.6 °F 63% 30.59 in 10.0 mi NNE 4.6 mph - N/A   Overcast
10:55 AM 19.4 °F 14.3 °F 8.6 °F 63% 30.58 in 10.0 mi NNW 3.5 mph - N/A   Overcast
11:15 AM 19.4 °F 14.3 °F 8.6 °F 63% 30.57 in 10.0 mi NNW 3.5 mph - N/A   Overcast
11:35 AM 19.4 °F 12.8 °F 8.6 °F 63% 30.56 in 10.0 mi NNW 4.6 mph - N/A   Overcast
11:55 AM 19.4 °F 12.8 °F 8.6 °F 63% 30.54 in 10.0 mi NNW 4.6 mph - N/A   Overcast
12:15 PM 19.4 °F 12.8 °F 8.6 °F 63% 30.53 in 10.0 mi NNW 4.6 mph - N/A   Overcast
12:35 PM 19.4 °F 12.8 °F 8.6 °F 63% 30.51 in 10.0 mi North 4.6 mph - N/A   Overcast
12:55 PM 19.4 °F 14.3 °F 8.6 °F 63% 30.51 in 10.0 mi North 3.5 mph - N/A   Overcast
1:15 PM 19.4 °F 12.8 °F 8.6 °F 63% 30.50 in 10.0 mi North 4.6 mph - N/A   Overcast
1:35 PM 19.4 °F 12.8 °F 8.6 °F 63% 30.49 in 10.0 mi North 4.6 mph - N/A   Overcast
1:55 PM 19.4 °F 14.3 °F 8.6 °F 63% 30.51 in 10.0 mi North 3.5 mph - N/A   Overcast
2:15 PM 19.4 °F 12.8 °F 8.6 °F 63% 30.51 in 10.0 mi NNW 4.6 mph - N/A   Overcast
2:35 PM 19.4 °F 14.3 °F 8.6 °F 63% 30.51 in 10.0 mi North 3.5 mph - N/A   Overcast
2:55 PM 19.4 °F 14.3 °F 8.6 °F 63% 30.51 in 10.0 mi North 3.5 mph - N/A   Overcast
3:15 PM 19.4 °F 12.8 °F 8.6 °F 63% 30.51 in 10.0 mi North 4.6 mph - N/A   Overcast
3:35 PM 19.4 °F 14.3 °F 8.6 °F 63% 30.52 in 10.0 mi NNW 3.5 mph - N/A   Overcast
3:55 PM 19.4 °F 14.3 °F 8.6 °F 63% 30.52 in 10.0 mi NNW 3.5 mph - N/A   Overcast
4:15 PM 19.4 °F 12.8 °F 8.6 °F 63% 30.52 in 10.0 mi North 4.6 mph - N/A   Overcast
4:35 PM 19.4 °F - 8.6 °F 63% 30.52 in 10.0 mi Calm Calm - N/A   Overcast
4:55 PM 19.4 °F 14.3 °F 8.6 °F 63% 30.52 in 10.0 mi North 3.5 mph - N/A   Overcast
5:15 PM 19.4 °F 14.3 °F 8.6 °F 63% 30.52 in 10.0 mi NNW 3.5 mph - N/A   Overcast
5:35 PM 19.4 °F 12.8 °F 8.6 °F 63% 30.52 in 10.0 mi North 4.6 mph - N/A   Overcast
5:55 PM 19.4 °F 14.3 °F 6.8 °F 58% 30.52 in 10.0 mi North 3.5 mph - N/A   Overcast
6:15 PM 17.6 °F 10.7 °F 6.8 °F 63% 30.52 in 10.0 mi North 4.6 mph - N/A   Overcast
6:35 PM 17.6 °F 12.3 °F 6.8 °F 63% 30.51 in 10.0 mi NNE 3.5 mph - N/A   Overcast
6:55 PM 17.6 °F 10.7 °F 6.8 °F 63% 30.51 in 10.0 mi North 4.6 mph - N/A   Overcast
7:15 PM 17.6 °F 12.3 °F 6.8 °F 63% 30.51 in 10.0 mi North 3.5 mph - N/A   Overcast
7:35 PM 17.6 °F 10.7 °F 6.8 °F 63% 30.49 in 10.0 mi NNE 4.6 mph - N/A   Overcast
7:55 PM 17.6 °F 10.7 °F 6.8 °F 63% 30.49 in 10.0 mi NE 4.6 mph - N/A   Overcast
8:15 PM 17.6 °F 10.7 °F 6.8 °F 63% 30.49 in 10.0 mi NE 4.6 mph - N/A   Overcast
8:35 PM 17.6 °F 12.3 °F 6.8 °F 63% 30.49 in 10.0 mi NE 3.5 mph - N/A   Overcast
8:55 PM 17.6 °F 12.3 °F 6.8 °F 63% 30.50 in 10.0 mi NNE 3.5 mph - N/A   Overcast
9:15 PM 17.6 °F - 6.8 °F 63% 30.50 in 10.0 mi Calm Calm - N/A   Overcast
9:35 PM 17.6 °F 10.7 °F 6.8 °F 63% 30.51 in 10.0 mi ENE 4.6 mph - N/A   Overcast
9:55 PM 17.6 °F - 6.8 °F 63% 30.50 in 10.0 mi Calm Calm - N/A   Overcast
10:15 PM 17.6 °F 12.3 °F 6.8 °F 63% 30.50 in 10.0 mi NNE 3.5 mph - N/A   Overcast
10:35 PM 19.4 °F 14.3 °F 8.6 °F 63% 30.49 in 10.0 mi NNE 3.5 mph - N/A   Overcast
10:55 PM 17.6 °F 9.3 °F 6.8 °F 63% 30.50 in 10.0 mi NE 5.8 mph - N/A   Overcast
11:15 PM 17.6 °F 10.7 °F 5.0 °F 58% 30.50 in 10.0 mi NE 4.6 mph - N/A   Mostly Cloudy
11:35 PM 17.6 °F 10.7 °F 5.0 °F 58% 30.50 in 10.0 mi NE 4.6 mph - N/A   Partly Cloudy
11:55 PM 17.6 °F 12.3 °F 5.0 °F 58% 30.50 in 10.0 mi NE 3.5 mph - N/A   Clear